Location: Noordwijk
(52.2400°N, 4.4500°E)
Time: 02:56:39
(UTC+00:00)

CAS-4B - Pass Details

Date: 13 December 2022
Orbit: 515 x 531 km, 43.0° (Epoch: 26 January)

Event Time Altitude Azimuth Distance (km) Brightness Sun altitude
Exits shadow 06:29:12 - 248° (WSW) 2,131 ? -10.5°
Reaches altitude 10° 06:30:34 10° 235° (SW) 1,772 ? -10.3°
Maximum altitude 06:32:53 15° 200° (SSW) 1,488 ? -10.0°
Drops below altitude 10° 06:35:12 10° 165° (SSE) 1,776 ? -9.6°
Sets 06:38:13 0° 142° (SE) 2,667 ? -9.2°
